| time (UTC) | temp F | wind direction | speed MPH | gust MPH | rain 1hr in | rain 24hr in | rain mn in | humidity % | barometer mb |
| 20260509035530 | 92 | 0 | 0.0 | 2.0 | 0.00 | 0.00 | 0.00 | 9 | 1008.0 |
| 20260509035033 | 93 | 0 | 0.0 | 1.0 | 0.00 | 0.00 | 0.00 | 9 | 1007.9 |
| 20260509034547 | 93 | 0 | 0.0 | 1.0 | 0.00 | 0.00 | 0.00 | 9 | 1007.9 |
| 20260509034030 | 93 | 0 | 0.0 | 1.0 | 0.00 | 0.00 | 0.00 | 9 | 1007.8 |
| 20260509033531 | 93 | 0 | 0.0 | 1.0 | 0.00 | 0.00 | 0.00 | 9 | 1007.8 |
| 20260509033108 | 94 | 0 | 0.0 | 1.0 | 0.00 | 0.00 | 0.00 | 9 | 1007.8 |
| 20260509032529 | 94 | 0 | 0.0 | 1.0 | 0.00 | 0.00 | 0.00 | 9 | 1007.7 |
| 20260509032031 | 94 | 0 | 0.0 | 1.0 | 0.00 | 0.00 | 0.00 | 9 | 1007.7 |
| 20260509031548 | 94 | 0 | 0.0 | 1.0 | 0.00 | 0.00 | 0.00 | 8 | 1007.7 |
| 20260509031030 | 94 | 0 | 0.0 | 1.0 | 0.00 | 0.00 | 0.00 | 8 | 1007.6 |
| 20260509030531 | 95 | 0 | 0.0 | 1.0 | 0.00 | 0.00 | 0.00 | 8 | 1007.5 |
| 20260509030044 | 95 | 0 | 0.0 | 1.0 | 0.00 | 0.00 | 0.00 | 8 | 1007.5 |
| 20260509025530 | 95 | 0 | 0.0 | 3.0 | 0.00 | 0.00 | 0.00 | 8 | 1007.3 |
| 20260509025033 | 95 | 0 | 0.0 | 3.0 | 0.00 | 0.00 | 0.00 | 8 | 1007.3 |
| 20260509024556 | 96 | 0 | 0.0 | 2.0 | 0.00 | 0.00 | 0.00 | 8 | 1007.3 |
| 20260509024029 | 96 | 0 | 0.0 | 2.0 | 0.00 | 0.00 | 0.00 | 8 | 1007.2 |
| 20260509023533 | 96 | 0 | 0.0 | 1.0 | 0.00 | 0.00 | 0.00 | 8 | 1007.2 |
| 20260509023047 | 96 | 0 | 0.0 | 1.0 | 0.00 | 0.00 | 0.00 | 8 | 1007.2 |
| 20260509022529 | 97 | 0 | 0.0 | 1.0 | 0.00 | 0.00 | 0.00 | 8 | 1007.1 |
| 20260509022032 | 97 | 0 | 0.0 | 1.0 | 0.00 | 0.00 | 0.00 | 8 | 1007.0 |
| 20260509021543 | 97 | 0 | 0.0 | 1.0 | 0.00 | 0.00 | 0.00 | 8 | 1006.9 |
| 20260509021033 | 97 | 0 | 0.0 | 1.0 | 0.00 | 0.00 | 0.00 | 8 | 1006.9 |
| 20260509020533 | 98 | 0 | 0.0 | 1.0 | 0.00 | 0.00 | 0.00 | 8 | 1006.8 |
| 20260509020052 | 98 | 0 | 0.0 | 1.0 | 0.00 | 0.00 | 0.00 | 7 | 1006.9 |
| 20260509015531 | 98 | 0 | 0.0 | 1.0 | 0.00 | 0.00 | 0.00 | 7 | 1006.8 |
| 20260509015031 | 98 | 0 | 0.0 | 3.0 | 0.00 | 0.00 | 0.00 | 7 | 1006.7 |
| 20260509014544 | 99 | 0 | 0.0 | 3.0 | 0.00 | 0.00 | 0.00 | 7 | 1006.7 |
| 20260509014030 | 99 | 0 | 0.0 | 1.0 | 0.00 | 0.00 | 0.00 | 7 | 1006.8 |
| 20260509013529 | 99 | 0 | 0.0 | 1.0 | 0.00 | 0.00 | 0.00 | 7 | 1006.7 |
| 20260509013045 | 99 | 0 | 0.0 | 2.0 | 0.00 | 0.00 | 0.00 | 7 | 1006.8 |
| 20260509012529 | 100 | 0 | 0.0 | 2.0 | 0.00 | 0.00 | 0.00 | 7 | 1006.8 |
| 20260509012029 | 100 | 0 | 0.0 | 1.0 | 0.00 | 0.00 | 0.00 | 7 | 1006.8 |
| 20260509011551 | 100 | 0 | 0.0 | 1.0 | 0.00 | 0.00 | 0.00 | 7 | 1006.8 |
| 20260509011028 | 101 | 0 | 0.0 | 1.0 | 0.00 | 0.00 | 0.00 | 7 | 1006.9 |
| 20260509010529 | 101 | 0 | 0.0 | 2.0 | 0.00 | 0.00 | 0.00 | 7 | 1006.9 |
| 20260509010046 | 101 | 0 | 0.0 | 2.0 | 0.00 | 0.00 | 0.00 | 7 | 1006.9 |
| 20260509005530 | 101 | 0 | 0.0 | 3.0 | 0.00 | 0.00 | 0.00 | 6 | 1006.9 |
| 20260509005029 | 102 | 0 | 0.0 | 3.0 | 0.00 | 0.00 | 0.00 | 6 | 1007.0 |
| 20260509004543 | 102 | 0 | 0.0 | 3.0 | 0.00 | 0.00 | 0.00 | 6 | 1007.0 |
| 20260509004031 | 102 | 0 | 0.0 | 2.0 | 0.00 | 0.00 | 0.00 | 7 | 1007.1 |
| 20260509003531 | 102 | 0 | 0.0 | 2.0 | 0.00 | 0.00 | 0.00 | 6 | 1007.1 |
| 20260509003055 | 102 | 229 | 0.0 | 1.0 | 0.00 | 0.00 | 0.00 | 6 | 1007.2 |
| 20260509002530 | 102 | 0 | 0.0 | 0.0 | 0.00 | 0.00 | 0.00 | 7 | 1007.2 |
| 20260509002030 | 102 | 0 | 0.0 | 0.0 | 0.00 | 0.00 | 0.00 | 7 | 1007.3 |
| 20260509001542 | 102 | 0 | 0.0 | 0.0 | 0.00 | 0.00 | 0.00 | 6 | 1007.3 |
| 20260509001031 | 102 | 0 | 0.0 | 0.0 | 0.00 | 0.00 | 0.00 | 7 | 1007.3 |
| 20260509000532 | 102 | 0 | 0.0 | 0.0 | 0.00 | 0.00 | 0.00 | 6 | 1007.4 |
| 20260509000041 | 102 | 0 | 0.0 | 1.0 | 0.00 | 0.00 | 0.00 | 6 | 1007.4 |
| 20260508235532 | 102 | 0 | 0.0 | 1.0 | 0.00 | 0.00 | 0.00 | 7 | 1007.5 |
| 20260508235031 | 102 | 0 | 0.0 | 2.0 | 0.00 | 0.00 | 0.00 | 7 | 1007.5 |
| 20260508234545 | 102 | 0 | 0.0 | 3.0 | 0.00 | 0.00 | 0.00 | 6 | 1007.5 |
| 20260508234030 | 102 | 0 | 0.0 | 4.0 | 0.00 | 0.00 | 0.00 | 7 | 1007.6 |
| 20260508233534 | 102 | 180 | 0.0 | 4.0 | 0.00 | 0.00 | 0.00 | 7 | 1007.6 |
| 20260508233046 | 103 | 0 | 0.0 | 1.0 | 0.00 | 0.00 | 0.00 | 7 | 1007.5 |
| 20260508232530 | 102 | 0 | 0.0 | 1.0 | 0.00 | 0.00 | 0.00 | 7 | 1007.5 |
| 20260508232030 | 102 | 0 | 0.0 | 2.0 | 0.00 | 0.00 | 0.00 | 7 | 1007.7 |
| 20260508231547 | 102 | 0 | 0.0 | 3.0 | 0.00 | 0.00 | 0.00 | 7 | 1007.7 |
| 20260508231031 | 102 | 0 | 0.0 | 3.0 | 0.00 | 0.00 | 0.00 | 6 | 1007.7 |
| 20260508230531 | 102 | 0 | 0.0 | 4.0 | 0.00 | 0.00 | 0.00 | 7 | 1007.9 |
| 20260508230045 | 102 | 0 | 0.0 | 4.0 | 0.00 | 0.00 | 0.00 | 6 | 1007.9 |
| 20260508225531 | 102 | 0 | 0.0 | 4.0 | 0.00 | 0.00 | 0.00 | 7 | 1008.0 |
| 20260508225031 | 102 | 0 | 0.0 | 3.0 | 0.00 | 0.00 | 0.00 | 6 | 1008.1 |
| 20260508224551 | 102 | 201 | 0.0 | 4.0 | 0.00 | 0.00 | 0.00 | 6 | 1008.1 |
| 20260508224031 | 102 | 0 | 0.0 | 4.0 | 0.00 | 0.00 | 0.00 | 7 | 1008.3 |
| 20260508223531 | 102 | 0 | 0.0 | 2.0 | 0.00 | 0.00 | 0.00 | 7 | 1008.3 |
| 20260508223046 | 102 | 0 | 0.0 | 5.0 | 0.00 | 0.00 | 0.00 | 7 | 1008.3 |
| 20260508222531 | 102 | 0 | 0.0 | 7.0 | 0.00 | 0.00 | 0.00 | 7 | 1008.6 |
| 20260508222030 | 102 | 182 | 1.0 | 7.0 | 0.00 | 0.00 | 0.00 | 7 | 1008.6 |
| 20260508221555 | 102 | 0 | 0.0 | 2.0 | 0.00 | 0.00 | 0.00 | 7 | 1008.6 |
| 20260508221031 | 102 | 0 | 0.0 | 3.0 | 0.00 | 0.00 | 0.00 | 7 | 1008.7 |
| 20260508220530 | 101 | 0 | 0.0 | 3.0 | 0.00 | 0.00 | 0.00 | 7 | 1008.8 |
| 20260508220050 | 101 | 0 | 0.0 | 4.0 | 0.00 | 0.00 | 0.00 | 7 | 1008.9 |
| 20260508215529 | 101 | 0 | 0.0 | 4.0 | 0.00 | 0.00 | 0.00 | 8 | 1009.0 |
| 20260508215032 | 101 | 0 | 0.0 | 6.0 | 0.00 | 0.00 | 0.00 | 8 | 1008.9 |
| 20260508214545 | 101 | 0 | 0.0 | 6.0 | 0.00 | 0.00 | 0.00 | 8 | 1009.0 |
| 20260508214031 | 101 | 0 | 0.0 | 1.0 | 0.00 | 0.00 | 0.00 | 8 | 1009.3 |
| 20260508213530 | 101 | 0 | 0.0 | 4.0 | 0.00 | 0.00 | 0.00 | 9 | 1009.4 |
| 20260508213040 | 101 | 0 | 0.0 | 4.0 | 0.00 | 0.00 | 0.00 | 9 | 1009.4 |
| 20260508212531 | 100 | 0 | 0.0 | 4.0 | 0.00 | 0.00 | 0.00 | 9 | 1009.6 |
| 20260508212030 | 100 | 0 | 0.0 | 1.0 | 0.00 | 0.00 | 0.00 | 9 | 1009.7 |
| 20260508211545 | 100 | 0 | 0.0 | 1.0 | 0.00 | 0.00 | 0.00 | 9 | 1009.7 |
| 20260508211030 | 99 | 0 | 0.0 | 0.0 | 0.00 | 0.00 | 0.00 | 9 | 1009.7 |
| 20260508210531 | 99 | 0 | 0.0 | 1.0 | 0.00 | 0.00 | 0.00 | 9 | 1009.9 |
| 20260508210045 | 99 | 0 | 0.0 | 1.0 | 0.00 | 0.00 | 0.00 | 10 | 1010.0 |
| 20260508205530 | 99 | 0 | 0.0 | 3.0 | 0.00 | 0.00 | 0.00 | 10 | 1010.1 |
| 20260508205030 | 99 | 0 | 0.0 | 3.0 | 0.00 | 0.00 | 0.00 | 10 | 1010.2 |
| 20260508204545 | 98 | 0 | 0.0 | 3.0 | 0.00 | 0.00 | 0.00 | 10 | 1010.2 |
| 20260508204031 | 98 | 0 | 0.0 | 2.0 | 0.00 | 0.00 | 0.00 | 10 | 1010.2 |
| 20260508203530 | 98 | 0 | 0.0 | 3.0 | 0.00 | 0.00 | 0.00 | 10 | 1010.4 |
| 20260508203042 | 98 | 0 | 0.0 | 3.0 | 0.00 | 0.00 | 0.00 | 10 | 1010.4 |
| 20260508202531 | 98 | 0 | 0.0 | 1.0 | 0.00 | 0.00 | 0.00 | 10 | 1010.5 |
| 20260508202028 | 97 | 0 | 0.0 | 1.0 | 0.00 | 0.00 | 0.00 | 10 | 1010.6 |
| 20260508201543 | 97 | 0 | 0.0 | 2.0 | 0.00 | 0.00 | 0.00 | 10 | 1010.6 |
| 20260508201030 | 97 | 0 | 0.0 | 2.0 | 0.00 | 0.00 | 0.00 | 10 | 1010.7 |
| 20260508200532 | 96 | 0 | 0.0 | 2.0 | 0.00 | 0.00 | 0.00 | 10 | 1010.7 |
| 20260508200046 | 96 | 195 | 0.0 | 2.0 | 0.00 | 0.00 | 0.00 | 10 | 1010.9 |
| 20260508195530 | 96 | 0 | 0.0 | 2.0 | 0.00 | 0.00 | 0.00 | 10 | 1010.9 |
| 20260508195030 | 97 | 0 | 0.0 | 1.0 | 0.00 | 0.00 | 0.00 | 10 | 1011.0 |
| 20260508194556 | 96 | 0 | 0.0 | 3.0 | 0.00 | 0.00 | 0.00 | 10 | 1011.0 |
| 20260508194132 | 96 | 0 | 0.0 | 3.0 | 0.00 | 0.00 | 0.00 | 10 | 1011.1 |
| 20260508193532 | 96 | 0 | 0.0 | 3.0 | 0.00 | 0.00 | 0.00 | 10 | 1010.9 |
| 20260508193042 | 96 | 0 | 0.0 | 1.0 | 0.00 | 0.00 | 0.00 | 10 | 1011.1 |
| 20260508192532 | 96 | 0 | 0.0 | 1.0 | 0.00 | 0.00 | 0.00 | 10 | 1011.3 |
| 20260508192031 | 95 | 0 | 0.0 | 0.0 | 0.00 | 0.00 | 0.00 | 10 | 1011.4 |
| 20260508191547 | 95 | 0 | 0.0 | 0.0 | 0.00 | 0.00 | 0.00 | 11 | 1011.4 |
| 20260508191032 | 94 | 0 | 0.0 | 0.0 | 0.00 | 0.00 | 0.00 | 11 | 1011.7 |
| 20260508190532 | 94 | 0 | 0.0 | 0.0 | 0.00 | 0.00 | 0.00 | 11 | 1011.6 |
| 20260508190107 | 94 | 0 | 0.0 | 0.0 | 0.00 | 0.00 | 0.00 | 11 | 1011.7 |
| 20260508185533 | 94 | 0 | 0.0 | 0.0 | 0.00 | 0.00 | 0.00 | 11 | 1011.8 |
| 20260508185034 | 93 | 0 | 0.0 | 0.0 | 0.00 | 0.00 | 0.00 | 11 | 1011.8 |
| 20260508184543 | 92 | 0 | 0.0 | 0.0 | 0.00 | 0.00 | 0.00 | 11 | 1011.9 |
| 20260508184030 | 92 | 0 | 0.0 | 0.0 | 0.00 | 0.00 | 0.00 | 12 | 1012.0 |
| 20260508183531 | 91 | 0 | 0.0 | 0.0 | 0.00 | 0.00 | 0.00 | 12 | 1012.1 |
| 20260508183045 | 91 | 0 | 0.0 | 0.0 | 0.00 | 0.00 | 0.00 | 12 | 1012.2 |
| 20260508182530 | 90 | 0 | 0.0 | 0.0 | 0.00 | 0.00 | 0.00 | 13 | 1012.3 |
| 20260508182034 | 89 | 0 | 0.0 | 0.0 | 0.00 | 0.00 | 0.00 | 12 | 1012.2 |
| 20260508181548 | 89 | 0 | 0.0 | 0.0 | 0.00 | 0.00 | 0.00 | 13 | 1012.3 |
| 20260508181030 | 89 | 0 | 0.0 | 1.0 | 0.00 | 0.00 | 0.00 | 13 | 1012.3 |
| 20260508180530 | 89 | 0 | 0.0 | 1.0 | 0.00 | 0.00 | 0.00 | 13 | 1012.5 |
| 20260508180043 | 88 | 0 | 0.0 | 1.0 | 0.00 | 0.00 | 0.00 | 13 | 1012.5 |
| 20260508175530 | 88 | 0 | 0.0 | 1.0 | 0.00 | 0.00 | 0.00 | 13 | 1012.6 |
| 20260508175034 | 88 | 0 | 0.0 | 0.0 | 0.00 | 0.00 | 0.00 | 14 | 1012.6 |
| 20260508174548 | 88 | 0 | 0.0 | 0.0 | 0.00 | 0.00 | 0.00 | 13 | 1012.5 |
| 20260508174031 | 87 | 0 | 0.0 | 0.0 | 0.00 | 0.00 | 0.00 | 14 | 1012.5 |
| 20260508173531 | 87 | 0 | 0.0 | 0.0 | 0.00 | 0.00 | 0.00 | 14 | 1012.5 |
| 20260508173045 | 87 | 0 | 0.0 | 0.0 | 0.00 | 0.00 | 0.00 | 14 | 1012.5 |
| 20260508172532 | 87 | 0 | 0.0 | 0.0 | 0.00 | 0.00 | 0.00 | 14 | 1012.5 |
| 20260508172032 | 87 | 0 | 0.0 | 0.0 | 0.00 | 0.00 | 0.00 | 14 | 1012.6 |
| 20260508171546 | 86 | 0 | 0.0 | 0.0 | 0.00 | 0.00 | 0.00 | 15 | 1012.7 |
| 20260508171031 | 86 | 0 | 0.0 | 0.0 | 0.00 | 0.00 | 0.00 | 15 | 1012.7 |
| 20260508170531 | 85 | 0 | 0.0 | 0.0 | 0.00 | 0.00 | 0.00 | 15 | 1012.7 |
| 20260508170044 | 85 | 0 | 0.0 | 0.0 | 0.00 | 0.00 | 0.00 | 15 | 1012.7 |
| 20260508165530 | 85 | 0 | 0.0 | 0.0 | 0.00 | 0.00 | 0.00 | 15 | 1012.7 |
| 20260508165031 | 84 | 0 | 0.0 | 0.0 | 0.00 | 0.00 | 0.00 | 15 | 1012.6 |
| 20260508164544 | 84 | 0 | 0.0 | 0.0 | 0.00 | 0.00 | 0.00 | 15 | 1012.7 |
| 20260508164031 | 83 | 0 | 0.0 | 1.0 | 0.00 | 0.00 | 0.00 | 16 | 1012.8 |
| 20260508163530 | 83 | 0 | 0.0 | 2.0 | 0.00 | 0.00 | 0.00 | 16 | 1012.9 |
| 20260508163057 | 83 | 0 | 0.0 | 2.0 | 0.00 | 0.00 | 0.00 | 16 | 1012.8 |
| 20260508162533 | 83 | 0 | 0.0 | 1.0 | 0.00 | 0.00 | 0.00 | 16 | 1012.8 |
| 20260508162031 | 83 | 0 | 0.0 | 1.0 | 0.00 | 0.00 | 0.00 | 16 | 1012.8 |
| 20260508161554 | 82 | 0 | 0.0 | 1.0 | 0.00 | 0.00 | 0.00 | 16 | 1012.8 |
| 20260508161031 | 82 | 0 | 0.0 | 2.0 | 0.00 | 0.00 | 0.00 | 16 | 1012.8 |
| 20260508160530 | 82 | 0 | 0.0 | 2.0 | 0.00 | 0.00 | 0.00 | 17 | 1012.8 |
| 20260508160044 | 81 | 0 | 0.0 | 0.0 | 0.00 | 0.00 | 0.00 | 17 | 1012.8 |
| 20260508155532 | 81 | 0 | 0.0 | 0.0 | 0.00 | 0.00 | 0.00 | 17 | 1012.8 |
| 20260508155032 | 81 | 0 | 0.0 | 0.0 | 0.00 | 0.00 | 0.00 | 17 | 1012.8 |
| 20260508154544 | 81 | 0 | 0.0 | 2.0 | 0.00 | 0.00 | 0.00 | 17 | 1012.8 |
| 20260508154032 | 80 | 0 | 0.0 | 2.0 | 0.00 | 0.00 | 0.00 | 17 | 1012.8 |
| 20260508153531 | 80 | 0 | 0.0 | 0.0 | 0.00 | 0.00 | 0.00 | 17 | 1012.8 |
| 20260508153055 | 80 | 0 | 0.0 | 0.0 | 0.00 | 0.00 | 0.00 | 19 | 1012.8 |
| 20260508152531 | 80 | 0 | 0.0 | 0.0 | 0.00 | 0.00 | 0.00 | 17 | 1012.8 |
| 20260508152031 | 79 | 0 | 0.0 | 0.0 | 0.00 | 0.00 | 0.00 | 18 | 1012.8 |
| 20260508151547 | 79 | 0 | 0.0 | 0.0 | 0.00 | 0.00 | 0.00 | 17 | 1012.8 |
| 20260508151032 | 79 | 0 | 0.0 | 0.0 | 0.00 | 0.00 | 0.00 | 17 | 1012.9 |
| 20260508150533 | 79 | 0 | 0.0 | 0.0 | 0.00 | 0.00 | 0.00 | 17 | 1012.9 |
| 20260508150046 | 79 | 0 | 0.0 | 1.0 | 0.00 | 0.00 | 0.00 | 17 | 1012.9 |
| 20260508145531 | 78 | 0 | 0.0 | 1.0 | 0.00 | 0.00 | 0.00 | 17 | 1012.9 |
| 20260508145031 | 78 | 0 | 0.0 | 1.0 | 0.00 | 0.00 | 0.00 | 18 | 1012.9 |
| 20260508144544 | 78 | 0 | 0.0 | 3.0 | 0.00 | 0.00 | 0.00 | 18 | 1012.9 |
| 20260508144031 | 77 | 0 | 0.0 | 4.0 | 0.00 | 0.00 | 0.00 | 18 | 1012.8 |
| 20260508143617 | 77 | 132 | 0.0 | 4.0 | 0.00 | 0.00 | 0.00 | 17 | 1012.8 |
| 20260508143102 | 76 | 0 | 0.0 | 2.0 | 0.00 | 0.00 | 0.00 | 18 | 1012.7 |
| 20260508142530 | 76 | 0 | 0.0 | 1.0 | 0.00 | 0.00 | 0.00 | 18 | 1012.7 |
| 20260508142029 | 75 | 0 | 0.0 | 1.0 | 0.00 | 0.00 | 0.00 | 19 | 1012.6 |
| 20260508141541 | 74 | 0 | 0.0 | 1.0 | 0.00 | 0.00 | 0.00 | 19 | 1012.5 |
| 20260508141029 | 73 | 0 | 0.0 | 1.0 | 0.00 | 0.00 | 0.00 | 20 | 1012.5 |
| 20260508140530 | 72 | 0 | 0.0 | 0.0 | 0.00 | 0.00 | 0.00 | 21 | 1012.4 |
| 20260508140039 | 72 | 0 | 0.0 | 0.0 | 0.00 | 0.00 | 0.00 | 23 | 1012.4 |
| 20260508135527 | 71 | 0 | 0.0 | 0.0 | 0.00 | 0.00 | 0.00 | 23 | 1012.4 |
| 20260508135030 | 70 | 0 | 0.0 | 0.0 | 0.00 | 0.00 | 0.00 | 23 | 1012.4 |
| 20260508134545 | 69 | 0 | 0.0 | 0.0 | 0.00 | 0.00 | 0.00 | 25 | 1012.3 |
| 20260508134030 | 68 | 0 | 0.0 | 0.0 | 0.00 | 0.00 | 0.00 | 25 | 1012.2 |
| 20260508133532 | 68 | 0 | 0.0 | 0.0 | 0.00 | 0.00 | 0.00 | 26 | 1012.2 |
| 20260508133044 | 67 | 0 | 0.0 | 0.0 | 0.00 | 0.00 | 0.00 | 25 | 1012.1 |
| 20260508132530 | 67 | 0 | 0.0 | 0.0 | 0.00 | 0.00 | 0.00 | 24 | 1012.0 |
| 20260508132028 | 67 | 0 | 0.0 | 0.0 | 0.00 | 0.00 | 0.00 | 25 | 1012.0 |
| 20260508131542 | 67 | 0 | 0.0 | 0.0 | 0.00 | 0.00 | 0.00 | 24 | 1011.9 |
| 20260508131030 | 67 | 0 | 0.0 | 0.0 | 0.00 | 0.00 | 0.00 | 24 | 1011.9 |
| 20260508130530 | 68 | 0 | 0.0 | 0.0 | 0.00 | 0.00 | 0.00 | 23 | 1011.8 |
| 20260508130040 | 68 | 0 | 0.0 | 0.0 | 0.00 | 0.00 | 0.00 | 23 | 1011.7 |
| 20260508125528 | 68 | 0 | 0.0 | 0.0 | 0.00 | 0.00 | 0.00 | 23 | 1011.7 |
| 20260508125030 | 68 | 0 | 0.0 | 0.0 | 0.00 | 0.00 | 0.00 | 22 | 1011.6 |
| 20260508124543 | 68 | 0 | 0.0 | 0.0 | 0.00 | 0.00 | 0.00 | 22 | 1011.5 |
| 20260508124030 | 68 | 0 | 0.0 | 0.0 | 0.00 | 0.00 | 0.00 | 23 | 1011.4 |
| 20260508123530 | 68 | 0 | 0.0 | 0.0 | 0.00 | 0.00 | 0.00 | 22 | 1011.4 |
| 20260508123047 | 68 | 0 | 0.0 | 0.0 | 0.00 | 0.00 | 0.00 | 22 | 1011.4 |
| 20260508122528 | 68 | 0 | 0.0 | 0.0 | 0.00 | 0.00 | 0.00 | 21 | 1011.4 |
| 20260508122028 | 68 | 0 | 0.0 | 0.0 | 0.00 | 0.00 | 0.00 | 21 | 1011.4 |
| 20260508121546 | 68 | 0 | 0.0 | 0.0 | 0.00 | 0.00 | 0.00 | 22 | 1011.4 |
| 20260508121031 | 68 | 0 | 0.0 | 0.0 | 0.00 | 0.00 | 0.00 | 20 | 1011.5 |
| 20260508120528 | 69 | 0 | 0.0 | 0.0 | 0.00 | 0.00 | 0.00 | 21 | 1011.5 |
| 20260508120045 | 69 | 0 | 0.0 | 0.0 | 0.00 | 0.00 | 0.00 | 20 | 1011.4 |
| 20260508115534 | 69 | 0 | 0.0 | 0.0 | 0.00 | 0.00 | 0.00 | 20 | 1011.3 |
| 20260508115030 | 69 | 0 | 0.0 | 0.0 | 0.00 | 0.00 | 0.00 | 20 | 1011.4 |
| 20260508114547 | 69 | 0 | 0.0 | 0.0 | 0.00 | 0.00 | 0.00 | 19 | 1011.3 |
| 20260508114031 | 70 | 0 | 0.0 | 0.0 | 0.00 | 0.00 | 0.00 | 19 | 1011.2 |
| 20260508113531 | 70 | 0 | 0.0 | 0.0 | 0.00 | 0.00 | 0.00 | 19 | 1011.2 |
| 20260508113044 | 70 | 0 | 0.0 | 0.0 | 0.00 | 0.00 | 0.00 | 19 | 1011.1 |
| 20260508112531 | 70 | 0 | 0.0 | 0.0 | 0.00 | 0.00 | 0.00 | 18 | 1011.2 |
| 20260508112028 | 70 | 0 | 0.0 | 0.0 | 0.00 | 0.00 | 0.00 | 18 | 1011.2 |
| 20260508111543 | 71 | 0 | 0.0 | 0.0 | 0.00 | 0.00 | 0.00 | 17 | 1011.1 |
| 20260508111030 | 71 | 0 | 0.0 | 0.0 | 0.00 | 0.00 | 0.00 | 18 | 1011.0 |
| 20260508110528 | 71 | 0 | 0.0 | 0.0 | 0.00 | 0.00 | 0.00 | 18 | 1011.0 |
| 20260508110040 | 71 | 0 | 0.0 | 0.0 | 0.00 | 0.00 | 0.00 | 18 | 1011.1 |
| 20260508105530 | 72 | 0 | 0.0 | 0.0 | 0.00 | 0.00 | 0.00 | 18 | 1011.1 |
| 20260508105030 | 72 | 0 | 0.0 | 0.0 | 0.00 | 0.00 | 0.00 | 17 | 1011.1 |
| 20260508104545 | 72 | 0 | 0.0 | 0.0 | 0.00 | 0.00 | 0.00 | 18 | 1011.0 |
| 20260508104031 | 73 | 0 | 0.0 | 0.0 | 0.00 | 0.00 | 0.00 | 17 | 1011.1 |
| 20260508103531 | 73 | 0 | 0.0 | 0.0 | 0.00 | 0.00 | 0.00 | 17 | 1011.0 |
| 20260508103049 | 73 | 0 | 0.0 | 0.0 | 0.00 | 0.00 | 0.00 | 17 | 1011.0 |
| 20260508102531 | 73 | 0 | 0.0 | 0.0 | 0.00 | 0.00 | 0.00 | 16 | 1011.0 |
| 20260508102033 | 74 | 0 | 0.0 | 0.0 | 0.00 | 0.00 | 0.00 | 16 | 1011.0 |
| 20260508101541 | 74 | 0 | 0.0 | 0.0 | 0.00 | 0.00 | 0.00 | 16 | 1011.0 |
| 20260508101031 | 74 | 0 | 0.0 | 0.0 | 0.00 | 0.00 | 0.00 | 16 | 1011.0 |
| 20260508100530 | 74 | 0 | 0.0 | 0.0 | 0.00 | 0.00 | 0.00 | 16 | 1011.0 |
| 20260508100057 | 75 | 0 | 0.0 | 0.0 | 0.00 | 0.00 | 0.00 | 17 | 1010.9 |
| 20260508095532 | 75 | 0 | 0.0 | 0.0 | 0.00 | 0.00 | 0.00 | 16 | 1011.0 |
| 20260508095031 | 75 | 0 | 0.0 | 0.0 | 0.00 | 0.00 | 0.00 | 16 | 1010.9 |
| 20260508094545 | 75 | 0 | 0.0 | 0.0 | 0.00 | 0.00 | 0.00 | 16 | 1010.9 |
| 20260508094029 | 75 | 0 | 0.0 | 0.0 | 0.00 | 0.00 | 0.00 | 16 | 1010.8 |
| 20260508093530 | 75 | 0 | 0.0 | 0.0 | 0.00 | 0.00 | 0.00 | 16 | 1010.8 |
| 20260508093045 | 75 | 0 | 0.0 | 0.0 | 0.00 | 0.00 | 0.00 | 15 | 1010.8 |
| 20260508092529 | 76 | 0 | 0.0 | 0.0 | 0.00 | 0.00 | 0.00 | 15 | 1010.7 |
| 20260508092032 | 76 | 0 | 0.0 | 0.0 | 0.00 | 0.00 | 0.00 | 15 | 1010.8 |
| 20260508091602 | 76 | 0 | 0.0 | 0.0 | 0.00 | 0.00 | 0.00 | 15 | 1010.8 |
| 20260508091033 | 76 | 0 | 0.0 | 0.0 | 0.00 | 0.00 | 0.00 | 15 | 1010.8 |
| 20260508090530 | 76 | 0 | 0.0 | 0.0 | 0.00 | 0.00 | 0.00 | 15 | 1010.7 |
| 20260508090049 | 76 | 0 | 0.0 | 0.0 | 0.00 | 0.00 | 0.00 | 14 | 1010.7 |
| 20260508085527 | 76 | 0 | 0.0 | 0.0 | 0.00 | 0.00 | 0.00 | 14 | 1010.7 |
| 20260508085026 | 76 | 0 | 0.0 | 0.0 | 0.00 | 0.00 | 0.00 | 14 | 1010.8 |
| 20260508084544 | 77 | 0 | 0.0 | 0.0 | 0.00 | 0.00 | 0.00 | 15 | 1010.7 |
| 20260508084026 | 77 | 0 | 0.0 | 0.0 | 0.00 | 0.00 | 0.00 | 15 | 1010.7 |
| 20260508083527 | 77 | 0 | 0.0 | 0.0 | 0.00 | 0.00 | 0.00 | 15 | 1010.8 |
| 20260508083044 | 77 | 0 | 0.0 | 0.0 | 0.00 | 0.00 | 0.00 | 15 | 1010.7 |
| 20260508082529 | 77 | 0 | 0.0 | 0.0 | 0.00 | 0.00 | 0.00 | 14 | 1010.8 |
| 20260508082029 | 77 | 0 | 0.0 | 0.0 | 0.00 | 0.00 | 0.00 | 14 | 1010.8 |
| 20260508081608 | 77 | 0 | 0.0 | 0.0 | 0.00 | 0.00 | 0.00 | 14 | 1010.7 |
| 20260508081032 | 77 | 0 | 0.0 | 0.0 | 0.00 | 0.00 | 0.00 | 14 | 1010.7 |
| 20260508080530 | 77 | 0 | 0.0 | 0.0 | 0.00 | 0.00 | 0.00 | 14 | 1010.7 |
| 20260508080059 | 77 | 0 | 0.0 | 0.0 | 0.00 | 0.00 | 0.00 | 14 | 1010.8 |
| 20260508075531 | 77 | 0 | 0.0 | 0.0 | 0.00 | 0.00 | 0.00 | 14 | 1010.8 |
| 20260508075034 | 77 | 0 | 0.0 | 0.0 | 0.00 | 0.00 | 0.00 | 14 | 1010.8 |
| 20260508074545 | 77 | 0 | 0.0 | 0.0 | 0.00 | 0.00 | 0.00 | 14 | 1010.8 |
| 20260508074032 | 77 | 0 | 0.0 | 0.0 | 0.00 | 0.00 | 0.00 | 14 | 1010.8 |
| 20260508073532 | 77 | 0 | 0.0 | 0.0 | 0.00 | 0.00 | 0.00 | 14 | 1010.8 |
| 20260508073047 | 77 | 0 | 0.0 | 0.0 | 0.00 | 0.00 | 0.00 | 13 | 1010.7 |
| 20260508072531 | 78 | 0 | 0.0 | 0.0 | 0.00 | 0.00 | 0.00 | 13 | 1010.7 |
| 20260508072030 | 78 | 0 | 0.0 | 0.0 | 0.00 | 0.00 | 0.00 | 14 | 1010.7 |
| 20260508071543 | 78 | 0 | 0.0 | 0.0 | 0.00 | 0.00 | 0.00 | 13 | 1010.7 |
| 20260508071030 | 78 | 0 | 0.0 | 0.0 | 0.00 | 0.00 | 0.00 | 13 | 1010.6 |
| 20260508070533 | 78 | 0 | 0.0 | 0.0 | 0.00 | 0.00 | 0.00 | 12 | 1010.7 |
| 20260508070042 | 78 | 0 | 0.0 | 0.0 | 0.00 | 0.00 | 0.00 | 12 | 1010.5 |
| 20260508065532 | 79 | 0 | 0.0 | 0.0 | 0.00 | 0.00 | 0.00 | 12 | 1010.6 |
| 20260508065030 | 79 | 0 | 0.0 | 0.0 | 0.00 | 0.00 | 0.00 | 12 | 1010.5 |
| 20260508064546 | 79 | 0 | 0.0 | 0.0 | 0.00 | 0.00 | 0.00 | 12 | 1010.6 |
| 20260508064031 | 79 | 0 | 0.0 | 0.0 | 0.00 | 0.00 | 0.00 | 11 | 1010.6 |
| 20260508063530 | 79 | 0 | 0.0 | 0.0 | 0.00 | 0.00 | 0.00 | 11 | 1010.6 |
| 20260508063042 | 79 | 0 | 0.0 | 0.0 | 0.00 | 0.00 | 0.00 | 11 | 1010.6 |
| 20260508062531 | 79 | 0 | 0.0 | 0.0 | 0.00 | 0.00 | 0.00 | 11 | 1010.7 |
| 20260508062030 | 79 | 0 | 0.0 | 0.0 | 0.00 | 0.00 | 0.00 | 11 | 1010.6 |
| 20260508061543 | 79 | 0 | 0.0 | 0.0 | 0.00 | 0.00 | 0.00 | 10 | 1010.7 |
| 20260508061031 | 79 | 0 | 0.0 | 0.0 | 0.00 | 0.00 | 0.00 | 10 | 1010.8 |
| 20260508060532 | 79 | 0 | 0.0 | 0.0 | 0.00 | 0.00 | 0.00 | 10 | 1010.8 |
| 20260508060056 | 79 | 0 | 0.0 | 0.0 | 0.00 | 0.00 | 0.00 | 10 | 1010.8 |
| 20260508055532 | 79 | 0 | 0.0 | 0.0 | 0.00 | 0.00 | 0.00 | 10 | 1010.8 |
| 20260508055030 | 79 | 0 | 0.0 | 0.0 | 0.00 | 0.00 | 0.00 | 10 | 1010.8 |
| 20260508054620 | 79 | 0 | 0.0 | 0.0 | 0.00 | 0.00 | 0.00 | 10 | 1010.9 |
| 20260508054030 | 79 | 0 | 0.0 | 0.0 | 0.00 | 0.00 | 0.00 | 10 | 1010.9 |
| 20260508053532 | 79 | 0 | 0.0 | 0.0 | 0.00 | 0.00 | 0.00 | 10 | 1010.9 |
| 20260508053051 | 80 | 0 | 0.0 | 0.0 | 0.00 | 0.00 | 0.00 | 10 | 1010.9 |
| 20260508052530 | 80 | 0 | 0.0 | 0.0 | 0.00 | 0.00 | 0.00 | 10 | 1010.9 |
| 20260508052030 | 80 | 0 | 0.0 | 0.0 | 0.00 | 0.00 | 0.00 | 10 | 1010.8 |
| 20260508051543 | 80 | 0 | 0.0 | 0.0 | 0.00 | 0.00 | 0.00 | 10 | 1010.8 |
| 20260508051031 | 80 | 0 | 0.0 | 0.0 | 0.00 | 0.00 | 0.00 | 10 | 1010.8 |
| 20260508050532 | 80 | 0 | 0.0 | 0.0 | 0.00 | 0.00 | 0.00 | 10 | 1010.8 |
| 20260508050050 | 81 | 0 | 0.0 | 0.0 | 0.00 | 0.00 | 0.00 | 9 | 1010.9 |
| 20260508045531 | 81 | 0 | 0.0 | 0.0 | 0.00 | 0.00 | 0.00 | 9 | 1010.8 |
| 20260508045031 | 81 | 0 | 0.0 | 0.0 | 0.00 | 0.00 | 0.00 | 9 | 1010.8 |
| 20260508044547 | 81 | 0 | 0.0 | 0.0 | 0.00 | 0.00 | 0.00 | 9 | 1010.8 |
| 20260508044031 | 82 | 0 | 0.0 | 0.0 | 0.00 | 0.00 | 0.00 | 9 | 1010.7 |
| 20260508043531 | 82 | 0 | 0.0 | 0.0 | 0.00 | 0.00 | 0.00 | 9 | 1010.8 |
| 20260508043049 | 82 | 0 | 0.0 | 0.0 | 0.00 | 0.00 | 0.00 | 9 | 1010.7 |
| 20260508042532 | 82 | 0 | 0.0 | 0.0 | 0.00 | 0.00 | 0.00 | 9 | 1010.6 |
| 20260508042031 | 83 | 0 | 0.0 | 0.0 | 0.00 | 0.00 | 0.00 | 9 | 1010.4 |
| 20260508041545 | 83 | 0 | 0.0 | 0.0 | 0.00 | 0.00 | 0.00 | 8 | 1010.4 |
| 20260508041031 | 84 | 0 | 0.0 | 0.0 | 0.00 | 0.00 | 0.00 | 8 | 1010.3 |
| 20260508040532 | 84 | 0 | 0.0 | 0.0 | 0.00 | 0.00 | 0.00 | 8 | 1010.1 |